Back to catalog

COSMOS 1275 DEB

AlivePO
NORAD 42228·DEBRIS·🇷🇺 Russia

Launched Jun 4, 1981 from Plesetsk Cosmodrome

Loading…

Next Passes (next 24 hours)

TLE

AgingSource: Space-Track

Epoch: Sep 11, 2026, 09:10 UTC

1 42228U 81053UU  26254.38242550  .00000309  00000-0  26752-3 0  9990
2 42228  82.9313 118.5075 0040756 123.2574 237.2502 13.82800176 93659

Track COSMOS 1275 DEB in real time with AllMySat

Download on the App Store